Flag for Turkmenistan Weather past 2 weeks in Ashgabat, Turkmenistan

Now
41 °F

Mostly cloudy.


Feels Like: 35 °F
Forecast: 36 / 61 °F
Wind: 10 mph from Northwest

Location: Ashgabat

Current Time: Mar 7, 2015 at 7:40:17 AM

Latest Report: Mar 7, 2015 at 7:00 AM


Visibility: N/A

Pressure: 30.42 "Hg

Humidity: 70%

Dew point: 32 °F

Location of AshgabatLocation

Historic Weather in Ashgabat — Graph

°F

Ashgabat temperature yesterday

Maximum temperature yesterday: 50 °F (at 12:00 AM)
Minimum temperature yesterday: 43 °F (at 9:00 PM)
Average temperature yesterday: 46 °F

Past Weeks' High & Low Weather Summary

 TemperatureHumidityPressure
High63 °F (Mar 3, 4:00 PM)100% (Feb 20, 6:00 AM)30.54 "Hg (Feb 20, 6:00 AM)
Low30 °F (Feb 22, 11:30 PM)34% (Mar 2, 3:00 PM)29.77 "Hg (Feb 21, 5:00 AM)
Average43 °F79%30.10 "Hg
* Reported Feb 20 6:00 AM — Mar 7 6:00 AM, Ashgabat, Weather by CustomWeather, © 2015

Note: Actual official high and low records may vary slightly from our data, if they occured in-between our weather recording intervals... More about our weather records

Advertising

Ashgabat weather history for previous 24 hours

 ConditionsComfort  
Time TempWeatherWind HumidityBarometerVisibility
6:00 AM
Sat, Mar 7
41 °FMostly cloudy.13 mph70%30.42 "HgN/A
5:00 AM43 °FMostly cloudy.8 mph76%30.42 "HgN/A
4:00 AM43 °FMostly cloudy.6 mph76%30.42 "HgN/A
3:00 AM43 °FMostly cloudy.3 mph71%30.42 "HgN/A
2:00 AM45 °FMostly cloudy.6 mph66%30.42 "HgN/A
1:00 AM45 °FMostly cloudy.6 mph61%30.42 "HgN/A
12:00 AM43 °FMostly cloudy.3 mph66%30.42 "HgN/A
11:00 PM
Fri, Mar 6
43 °FPassing clouds.10 mph66%30.42 "HgN/A
10:00 PM43 °FPassing clouds.8 mph66%30.42 "HgN/A
9:00 PM43 °FMostly cloudy.10 mph71%30.42 "HgN/A
8:00 PM45 °FMostly cloudy.15 mph61%30.42 "HgN/A
7:00 PM45 °FSprinkles. More clouds than sun.15 mph71%30.39 "HgN/A
6:00 PM45 °FSprinkles. More clouds than sun.20 mph81%30.39 "HgN/A
5:00 PM46 °FMore clouds than sun.17 mph82%30.36 "HgN/A
4:00 PM46 °FMore clouds than sun.15 mph82%30.33 "HgN/A
3:00 PM48 °FCloudy.13 mph82%30.33 "HgN/A
2:30 PM46 °FCloudy.15 mph87%30.33 "HgN/A
2:00 PM46 °FSprinkles. Cloudy.13 mph87%30.33 "HgN/A
1:30 PM46 °FSprinkles. Cloudy.13 mph93%30.33 "HgN/A
1:00 PM46 °FSprinkles. Cloudy.8 mph93%30.33 "HgN/A
12:30 PM45 °FSprinkles. Cloudy.10 mph93%30.33 "Hg5 mi
12:00 PM45 °FSprinkles. Cloudy.8 mph93%30.30 "Hg5 mi
11:00 AM45 °FSprinkles. More clouds than sun.8 mph93%30.30 "HgN/A
10:00 AM45 °FSprinkles. Cloudy.6 mph93%30.27 "Hg4 mi
9:30 AM45 °FSprinkles. Cloudy.8 mph100%30.27 "Hg4 mi
9:00 AM45 °FSprinkles. More clouds than sun.8 mph93%30.24 "Hg4 mi
8:30 AM46 °FSprinkles. Mostly cloudy.6 mph93%30.21 "HgN/A
8:00 AM46 °FSprinkles. Mostly cloudy.3 mph93%30.18 "Hg5 mi
7:30 AM46 °FSprinkles. Mostly cloudy.3 mph93%30.18 "Hg4 mi
7:00 AM46 °FSprinkles. Mostly cloudy.6 mph93%30.15 "Hg4 mi
Weather by CustomWeather, © 2015

See weather overviewHow to use our weather pages